Location: Balmoral
(33.0667°S, 151.5833°E)
Time: 01:31:12
(UTC+00:00)

Cosmos 1633 Rocket - Pass Details

Date: 18 September 2020
Orbit: 608 x 623 km, 82.5° (Epoch: 21 October)

Event Time Altitude Azimuth Distance (km) Brightness Sun altitude
Exits shadow 18:09:30 29° 217° (SW) 1,171 4.2 -21.2°
Drops below altitude 10° 18:12:07 10° 191° (S) 2,021 5.7 -20.7°
Sets 18:14:31 0° 183° (S) 2,937 6.7 -20.2°
